START_TIME,STEP,MOV.,A46,t_acc.,A13,t_acc.,M47,t_acc.,A17,t_acc.,A28,t_acc.,M38,t_acc.
1979-07-15 06:00:25.740 ,0,1,,0,5.,4.8,0.,4.8,,0,0.,4.8,9.,4.8
1979-07-15 06:00:30.540 ,0,1,,0,9.,4.8,0.,4.8,,0,0.,4.8,4.,4.8
1979-07-15 06:00:35.340 ,0,1,,0,2.,4.8,0.,4.8,,0,0.,4.8,3.,4.8
1979-07-15 06:00:40.140 ,0,1,,0,0.,4.8,0.,4.8,,0,0.,4.8,2.,4.8
1979-07-15 06:00:44.940 ,0,1,,0,0.,4.8,0.,4.8,,0,0.,4.8,0.,4.8
1979-07-15 06:00:49.740 ,4,1,,0,0.,4.8,0.,4.8,,0,0.,4.8,0.,4.8
1979-07-15 06:00:54.540 ,4,1,,0,0.,4.8,0.,4.8,,0,0.,4.8,8.,4.8
1979-07-15 06:00:59.340 ,4,1,,0,3.,4.8,0.,4.8,,0,0.,4.8,4.,4.8
1979-07-15 06:01:04.140 ,4,1,,0,8.,4.8,1.,4.8,,0,0.,4.8,8.,4.8
1979-07-15 06:01:08.940 ,4,1,,0,22.,4.8,1.,4.8,,0,0.,4.8,15.,4.8
1979-07-15 06:01:13.740 ,7,1,,0,72.,4.8,7.,4.8,,0,0.,4.8,49.,4.8
1979-07-15 06:01:18.540 ,7,1,,0,96.,4.8,4.,4.8,,0,0.,4.8,84.,4.8
1979-07-15 06:01:23.340 ,7,1,,0,44.,4.8,3.,4.8,,0,0.,4.8,22.,4.8
1979-07-15 06:01:28.140 ,7,1,,0,0.,4.8,0.,4.8,,0,0.,4.8,0.,4.8
1979-07-15 06:01:32.940 ,7,1,,0,0.,4.8,0.,4.8,,0,0.,4.8,0.,4.8
1979-07-15 06:01:37.740 ,3,1,,0,0.,4.8,0.,4.8,,0,0.,4.8,23.,4.8
1979-07-15 06:01:42.540 ,3,1,,0,0.,4.8,0.,4.8,,0,0.,4.8,44.,4.8
1979-07-15 06:01:47.340 ,3,1,,0,6.,4.8,0.,4.8,,0,0.,4.8,64.,4.8
1979-07-15 06:01:52.140 ,3,1,,0,24.,4.8,0.,4.8,,0,0.,4.8,23.,4.8
1979-07-15 06:01:56.940 ,3,1,,0,18.,4.8,1.,4.8,,0,0.,4.8,5.,4.8
1979-07-15 06:02:01.740 ,0,1,,0,6.,4.8,0.,4.8,,0,0.,4.8,5.,4.8
1979-07-15 06:02:06.540 ,0,1,,0,5.,4.8,1.,4.8,,0,0.,4.8,4.,4.8
1979-07-15 06:02:11.340 ,0,1,,0,3.,4.8,0.,4.8,,0,0.,4.8,3.,4.8
1979-07-15 06:02:16.140 ,0,1,,0,0.,4.8,0.,4.8,,0,0.,4.8,4.,4.8
1979-07-15 06:02:20.940 ,0,1,,0,0.,4.8,0.,4.8,,0,0.,4.8,1.,4.8
1979-07-15 06:02:25.740 ,4,1,,0,0.,4.8,0.,4.8,,0,0.,4.8,4.,4.8
1979-07-15 06:02:30.540 ,4,1,,0,0.,4.8,0.,4.8,,0,0.,4.8,4.,4.8
1979-07-15 06:02:35.340 ,4,1,,0,0.,4.8,0.,4.8,,0,0.,4.8,1.,4.8
1979-07-15 06:02:40.140 ,4,1,,0,9.,4.8,2.,4.8,,0,0.,4.8,4.,4.8
1979-07-15 06:02:44.940 ,4,1,,0,20.,4.8,0.,4.8,,0,0.,4.8,13.,4.8
1979-07-15 06:02:49.740 ,7,1,,0,66.,4.8,7.,4.8,,0,0.,4.8,55.,4.8
1979-07-15 06:02:54.540 ,7,1,,0,80.,4.8,7.,4.8,,0,0.,4.8,78.,4.8
1979-07-15 06:02:59.340 ,7,1,,0,42.,4.8,2.,4.8,,0,0.,4.8,33.,4.8
1979-07-15 06:03:04.140 ,7,1,,0,0.,4.8,0.,4.8,,0,0.,4.8,0.,4.8
1979-07-15 06:03:08.940 ,7,1,,0,0.,4.8,0.,4.8,,0,0.,4.8,0.,4.8
1979-07-15 06:03:13.740 ,3,1,,0,0.,4.8,0.,4.8,,0,0.,4.8,23.,4.8
1979-07-15 06:03:18.540 ,3,1,,0,0.,4.8,0.,4.8,,0,0.,4.8,55.,4.8
1979-07-15 06:03:23.340 ,3,1,,0,10.,4.8,0.,4.8,,0,0.,4.8,78.,4.8
1979-07-15 06:03:28.140 ,3,1,,0,33.,4.8,0.,4.8,,0,0.,4.8,17.,4.8
1979-07-15 06:03:32.940 ,3,1,,0,9.,4.8,1.,4.8,,0,0.,4.8,8.,4.8
1979-07-15 06:03:37.740 ,0,1,,0,10.,4.8,1.,4.8,,0,0.,4.8,7.,4.8
1979-07-15 06:03:42.540 ,0,1,,0,10.,4.8,0.,4.8,,0,0.,4.8,7.,4.8
1979-07-15 06:03:47.340 ,0,1,,0,0.,4.8,0.,4.8,,0,0.,4.8,5.,4.8
1979-07-15 06:03:52.140 ,0,1,,0,0.,4.8,0.,4.8,,0,0.,4.8,1.,4.8
1979-07-15 06:03:56.940 ,0,1,,0,0.,4.8,0.,4.8,,0,0.,4.8,3.,4.8
1979-07-15 06:04:01.740 ,4,1,,0,1.,4.8,0.,4.8,,0,0.,4.8,0.,4.8
1979-07-15 06:04:06.540 ,4,1,,0,0.,4.8,0.,4.8,,0,0.,4.8,2.,4.8
1979-07-15 06:04:11.340 ,4,1,,0,3.,4.8,0.,4.8,,0,0.,4.8,3.,4.8
1979-07-15 06:04:16.140 ,4,1,,0,9.,4.8,1.,4.8,,0,0.,4.8,7.,4.8
1979-07-15 06:04:20.940 ,4,1,,0,21.,4.8,2.,4.8,,0,0.,4.8,14.,4.8
1979-07-15 06:04:25.740 ,7,1,,0,68.,4.8,5.,4.8,,0,0.,4.8,57.,4.8
1979-07-15 06:04:30.540 ,7,1,,0,86.,4.8,5.,4.8,,0,0.,4.8,61.,4.8
1979-07-15 06:04:35.340 ,7,1,,0,46.,4.8,2.,4.8,,0,0.,4.8,41.,4.8
1979-07-15 06:04:40.140 ,7,1,,0,0.,4.8,0.,4.8,,0,0.,4.8,0.,4.8
1979-07-15 06:04:44.940 ,7,1,,0,0.,4.8,0.,4.8,,0,0.,4.8,0.,4.8
1979-07-15 06:04:49.740 ,3,1,,0,0.,4.8,0.,4.8,,0,0.,4.8,20.,4.8
1979-07-15 06:04:54.540 ,3,1,,0,0.,4.8,0.,4.8,,0,0.,4.8,51.,4.8
1979-07-15 06:04:59.340 ,3,1,,0,11.,4.8,2.,4.8,,0,0.,4.8,70.,4.8
1979-07-15 06:05:04.140 ,3,1,,0,29.,4.8,3.,4.8,,0,0.,4.8,12.,4.8
1979-07-15 06:05:08.940 ,3,1,,0,10.,4.8,0.,4.8,,0,0.,4.8,12.,4.8
1979-07-15 06:05:13.740 ,0,1,,0,12.,4.8,0.,4.8,,0,0.,4.8,8.,4.8
1979-07-15 06:05:18.540 ,0,1,,0,8.,4.8,1.,4.8,,0,0.,4.8,1.,4.8
1979-07-15 06:05:23.340 ,0,1,,0,1.,4.8,0.,4.8,,0,0.,4.8,0.,4.8
1979-07-15 06:05:28.140 ,0,1,,0,0.,4.8,0.,4.8,,0,0.,4.8,3.,4.8
1979-07-15 06:05:32.940 ,0,1,,0,0.,4.8,0.,4.8,,0,0.,4.8,0.,4.8
1979-07-15 06:05:37.740 ,0,0,,0,0.,4.8,0.,4.8,,0,0.,4.8,1.,4.8
1979-07-15 06:05:42.540 ,0,0,,0,0.,4.8,0.,4.8,,0,0.,4.8,3.,4.8
1979-07-15 06:05:47.340 ,0,0,,0,0.,4.8,0.,4.8,,0,0.,4.8,8.,4.8
1979-07-15 06:05:52.140 ,0,0,,0,14.,4.8,1.,4.8,,0,0.,4.8,3.,4.8
1979-07-15 06:05:56.940 ,0,0,,0,28.,4.8,1.,4.8,,0,0.,4.8,21.,4.8
1979-07-15 06:06:01.740 ,0,0,,0,74.,4.8,8.,4.8,,0,0.,4.8,57.,4.8
1979-07-15 06:06:06.540 ,0,0,,0,86.,4.8,9.,4.8,,0,0.,4.8,76.,4.8
1979-07-15 06:06:11.340 ,0,0,,0,38.,4.8,1.,4.8,,0,0.,4.8,26.,4.8
1979-07-15 06:06:16.140 ,0,0,,0,0.,4.8,0.,4.8,,0,0.,4.8,0.,4.8
1979-07-15 06:06:20.940 ,0,0,,0,0.,4.8,0.,4.8,,0,0.,4.8,0.,4.8
1979-07-15 06:06:25.740 ,5,0,,0,0.,4.8,0.,4.8,,0,0.,4.8,21.,4.8
1979-07-15 06:06:30.540 ,5,0,,0,0.,4.8,0.,4.8,,0,0.,4.8,51.,4.8
1979-07-15 06:06:35.340 ,5,0,,0,11.,4.8,1.,4.8,,0,0.,4.8,74.,4.8
1979-07-15 06:06:40.140 ,5,0,,0,124.,4.8,10.,4.8,,0,0.,4.8,72.,4.8
1979-07-15 06:06:44.940 ,5,0,,0,102.,4.8,12.,4.8,,0,0.,4.8,64.,4.8
1979-07-15 06:06:49.740 ,5,0,,0,126.,4.8,9.,4.8,,0,0.,4.8,72.,4.8
1979-07-15 06:06:54.540 ,5,0,,0,90.,4.8,11.,4.8,,0,0.,4.8,68.,4.8
1979-07-15 06:06:59.340 ,5,0,,0,108.,4.8,11.,4.8,,0,0.,4.8,82.,4.8
1979-07-15 06:07:04.140 ,5,0,,0,0.,4.8,0.,4.8,,0,0.,4.8,80.,4.8
1979-07-15 06:07:08.940 ,5,0,,0,0.,4.8,0.,4.8,,0,0.,4.8,86.,4.8
1979-07-15 06:07:13.740 ,4,0,,0,0.,4.8,0.,4.8,,0,0.,4.8,61.,4.8
1979-07-15 06:07:18.540 ,4,0,,0,0.,4.8,0.,4.8,,0,0.,4.8,63.,4.8
1979-07-15 06:07:23.340 ,4,0,,0,5.,4.8,0.,4.8,,0,0.,4.8,18.,4.8
1979-07-15 06:07:28.140 ,4,0,,0,32.,4.8,1.,4.8,,0,0.,4.8,22.,4.8
1979-07-15 06:07:32.940 ,4,0,,0,31.,4.8,1.,4.8,,0,0.,4.8,18.,4.8
1979-07-15 06:07:37.740 ,4,0,,0,22.,4.8,0.,4.8,,0,0.,4.8,24.,4.8
1979-07-15 06:07:42.540 ,4,0,,0,34.,4.8,1.,4.8,,0,0.,4.8,22.,4.8
1979-07-15 06:07:47.340 ,4,0,,0,20.,4.8,2.,4.8,,0,0.,4.8,22.,4.8
1979-07-15 06:07:52.140 ,4,0,,0,0.,4.8,0.,4.8,,0,0.,4.8,23.,4.8
1979-07-15 06:07:56.940 ,4,0,,0,0.,4.8,0.,4.8,,0,0.,4.8,17.,4.8
1979-07-15 06:08:01.740 ,3,0,,0,0.,4.8,0.,4.8,,0,0.,4.8,13.,4.8
1979-07-15 06:08:06.540 ,3,0,,0,0.,4.8,0.,4.8,,0,0.,4.8,13.,4.8
1979-07-15 06:08:11.340 ,3,0,,0,2.,4.8,0.,4.8,,0,0.,4.8,6.,4.8
1979-07-15 06:08:16.140 ,3,0,,0,13.,4.8,0.,4.8,,0,0.,4.8,5.,4.8
1979-07-15 06:08:20.940 ,3,0,,0,16.,4.8,1.,4.8,,0,0.,4.8,3.,4.8
1979-07-15 06:08:25.740 ,3,0,,0,12.,4.8,0.,4.8,,0,0.,4.8,11.,4.8
1979-07-15 06:08:30.540 ,3,0,,0,7.,4.8,1.,4.8,,0,0.,4.8,9.,4.8
1979-07-15 06:08:35.340 ,3,0,,0,11.,4.8,1.,4.8,,0,0.,4.8,4.,4.8
1979-07-15 06:08:40.140 ,3,0,,0,0.,4.8,0.,4.8,,0,0.,4.8,4.,4.8
1979-07-15 06:08:44.940 ,3,0,,0,0.,4.8,0.,4.8,,0,0.,4.8,2.,4.8
1979-07-15 06:08:49.740 ,2,0,,0,0.,4.8,0.,4.8,,0,0.,4.8,8.,4.8
1979-07-15 06:08:54.540 ,2,0,,0,0.,4.8,0.,4.8,,0,0.,4.8,3.,4.8
1979-07-15 06:08:59.340 ,2,0,,0,3.,4.8,0.,4.8,,0,0.,4.8,4.,4.8
1979-07-15 06:09:04.140 ,2,0,,0,7.,4.8,0.,4.8,,0,0.,4.8,3.,4.8
1979-07-15 06:09:08.940 ,2,0,,0,5.,4.8,0.,4.8,,0,0.,4.8,4.,4.8
1979-07-15 06:09:13.740 ,2,0,,0,7.,4.8,1.,4.8,,0,0.,4.8,5.,4.8
1979-07-15 06:09:18.540 ,2,0,,0,6.,4.8,0.,4.8,,0,0.,4.8,2.,4.8
1979-07-15 06:09:23.340 ,2,0,,0,8.,4.8,1.,4.8,,0,0.,4.8,8.,4.8
1979-07-15 06:09:28.140 ,2,0,,0,0.,4.8,0.,4.8,,0,0.,4.8,2.,4.8
1979-07-15 06:09:32.940 ,2,0,,0,0.,4.8,0.,4.8,,0,0.,4.8,6.,4.8
1979-07-15 06:09:37.740 ,1,0,,0,0.,4.8,0.,4.8,,0,0.,4.8,4.,4.8
1979-07-15 06:09:42.540 ,1,0,,0,0.,4.8,0.,4.8,,0,0.,4.8,3.,4.8
1979-07-15 06:09:47.340 ,1,0,,0,0.,4.8,0.,4.8,,0,0.,4.8,1.,4.8
1979-07-15 06:09:52.140 ,1,0,,0,6.,4.8,0.,4.8,,0,0.,4.8,0.,4.8
1979-07-15 06:09:56.940 ,1,0,,0,3.,4.8,0.,4.8,,0,0.,4.8,1.,4.8
1979-07-15 06:10:01.740 ,1,0,,0,5.,4.8,0.,4.8,,0,0.,4.8,5.,4.8
1979-07-15 06:10:06.540 ,1,0,,0,3.,4.8,0.,4.8,,0,0.,4.8,1.,4.8
1979-07-15 06:10:11.340 ,1,0,,0,4.,4.8,0.,4.8,,0,0.,4.8,0.,4.8
1979-07-15 06:10:16.140 ,1,0,,0,0.,4.8,0.,4.8,,0,0.,4.8,5.,4.8
1979-07-15 06:10:20.940 ,1,0,,0,0.,4.8,0.,4.8,,0,0.,4.8,1.,4.8
1979-07-15 06:10:25.740 ,0,0,,0,0.,4.8,0.,4.8,,0,0.,4.8,4.,4.8
1979-07-15 06:10:30.540 ,0,0,,0,0.,4.8,0.,4.8,,0,0.,4.8,0.,4.8
1979-07-15 06:10:35.340 ,0,0,,0,0.,4.8,0.,4.8,,0,0.,4.8,1.,4.8
1979-07-15 06:10:40.140 ,0,0,,0,2.,4.8,0.,4.8,,0,0.,4.8,1.,4.8
1979-07-15 06:10:44.940 ,0,0,,0,9.,4.8,0.,4.8,,0,0.,4.8,5.,4.8
1979-07-15 06:10:49.740 ,0,0,,0,3.,4.8,1.,4.8,,0,0.,4.8,4.,4.8
1979-07-15 06:10:54.540 ,0,0,,0,5.,4.8,0.,4.8,,0,0.,4.8,1.,4.8
1979-07-15 06:10:59.340 ,0,0,,0,2.,4.8,0.,4.8,,0,0.,4.8,3.,4.8
1979-07-15 06:11:04.140 ,0,0,,0,0.,4.8,0.,4.8,,0,0.,4.8,1.,4.8
1979-07-15 06:11:08.940 ,0,0,,0,0.,4.8,0.,4.8,,0,0.,4.8,1.,4.8
1979-07-15 06:11:13.740 ,0,0,,0,0.,4.8,0.,4.8,,0,0.,4.8,3.,4.8
1979-07-15 06:11:18.540 ,0,0,,0,0.,4.8,0.,4.8,,0,0.,4.8,1.,4.8
1979-07-15 06:11:23.340 ,0,0,,0,0.,4.8,0.,4.8,,0,0.,4.8,2.,4.8
1979-07-15 06:11:28.140 ,0,0,,0,4.,4.8,0.,4.8,,0,0.,4.8,0.,4.8
1979-07-15 06:11:32.940 ,0,0,,0,3.,4.8,1.,4.8,,0,0.,4.8,3.,4.8
1979-07-15 06:11:37.740 ,0,0,,0,5.,4.8,0.,4.8,,0,0.,4.8,1.,4.8
1979-07-15 06:11:42.540 ,0,0,,0,5.,4.8,0.,4.8,,0,0.,4.8,0.,4.8
1979-07-15 06:11:47.340 ,0,0,,0,4.,4.8,0.,4.8,,0,0.,4.8,2.,4.8
1979-07-15 06:11:52.140 ,0,0,,0,0.,4.8,0.,4.8,,0,0.,4.8,1.,4.8
1979-07-15 06:11:56.940 ,0,0,,0,0.,4.8,0.,4.8,,0,0.,4.8,3.,4.8
1979-07-15 06:12:01.730 ,1,0,,0,0.,4.8,0.,4.8,,0,0.,4.8,4.,4.8
1979-07-15 06:12:06.530 ,1,0,,0,0.,4.8,0.,4.8,,0,0.,4.8,2.,4.8
1979-07-15 06:12:11.340 ,1,0,,0,2.,4.8,0.,4.8,,0,0.,4.8,1.,4.8
1979-07-15 06:12:16.140 ,1,0,,0,4.,4.8,1.,4.8,,0,0.,4.8,3.,4.8
1979-07-15 06:12:20.930 ,1,0,,0,2.,4.8,1.,4.8,,0,0.,4.8,2.,4.8
1979-07-15 06:12:25.730 ,1,0,,0,4.,4.8,0.,4.8,,0,0.,4.8,2.,4.8
1979-07-15 06:12:30.530 ,1,0,,0,7.,4.8,0.,4.8,,0,0.,4.8,3.,4.8
1979-07-15 06:12:35.340 ,1,0,,0,3.,4.8,0.,4.8,,0,0.,4.8,2.,4.8
1979-07-15 06:12:40.140 ,1,0,,0,0.,4.8,0.,4.8,,0,0.,4.8,1.,4.8
1979-07-15 06:12:44.930 ,1,0,,0,0.,4.8,0.,4.8,,0,0.,4.8,1.,4.8
1979-07-15 06:12:49.730 ,2,0,,0,0.,4.8,0.,4.8,,0,0.,4.8,2.,4.8
1979-07-15 06:12:54.530 ,2,0,,0,0.,4.8,0.,4.8,,0,0.,4.8,3.,4.8
1979-07-15 06:12:59.340 ,2,0,,0,1.,4.8,0.,4.8,,0,0.,4.8,2.,4.8
1979-07-15 06:13:04.140 ,2,0,,0,6.,4.8,0.,4.8,,0,0.,4.8,6.,4.8
1979-07-15 06:13:08.930 ,2,0,,0,7.,4.8,0.,4.8,,0,0.,4.8,2.,4.8
1979-07-15 06:13:13.730 ,2,0,,0,3.,4.8,0.,4.8,,0,0.,4.8,5.,4.8
1979-07-15 06:13:18.530 ,2,0,,0,7.,4.8,1.,4.8,,0,0.,4.8,2.,4.8
1979-07-15 06:13:23.330 ,2,0,,0,3.,4.8,2.,4.8,,0,0.,4.8,1.,4.8
1979-07-15 06:13:28.140 ,2,0,,0,0.,4.8,0.,4.8,,0,0.,4.8,6.,4.8
1979-07-15 06:13:32.930 ,2,0,,0,0.,4.8,0.,4.8,,0,0.,4.8,3.,4.8
1979-07-15 06:13:37.730 ,3,0,,0,0.,4.8,0.,4.8,,0,0.,4.8,3.,4.8
1979-07-15 06:13:42.530 ,3,0,,0,0.,4.8,0.,4.8,,0,0.,4.8,3.,4.8
1979-07-15 06:13:47.340 ,3,0,,0,0.,4.8,0.,4.8,,0,0.,4.8,4.,4.8
1979-07-15 06:13:52.140 ,3,0,,0,7.,4.8,0.,4.8,,0,0.,4.8,9.,4.8
1979-07-15 06:13:56.930 ,3,0,,0,12.,4.8,0.,4.8,,0,0.,4.8,1.,4.8
1979-07-15 06:14:01.730 ,3,0,,0,12.,4.8,1.,4.8,,0,0.,4.8,6.,4.8
1979-07-15 06:14:06.530 ,3,0,,0,10.,4.8,0.,4.8,,0,0.,4.8,6.,4.8
1979-07-15 06:14:11.340 ,3,0,,0,8.,4.8,0.,4.8,,0,0.,4.8,4.,4.8
1979-07-15 06:14:16.140 ,3,0,,0,0.,4.8,0.,4.8,,0,0.,4.8,2.,4.8
1979-07-15 06:14:20.930 ,3,0,,0,0.,4.8,0.,4.8,,0,0.,4.8,4.,4.8
1979-07-15 06:14:25.730 ,4,0,,0,0.,4.8,0.,4.8,,0,0.,4.8,6.,4.8
1979-07-15 06:14:30.530 ,4,0,,0,0.,4.8,0.,4.8,,0,0.,4.8,8.,4.8
1979-07-15 06:14:35.330 ,4,0,,0,4.,4.8,0.,4.8,,0,0.,4.8,21.,4.8
1979-07-15 06:14:40.140 ,4,0,,0,17.,4.8,0.,4.8,,0,0.,4.8,12.,4.8
1979-07-15 06:14:44.930 ,4,0,,0,24.,4.8,0.,4.8,,0,0.,4.8,15.,4.8
1979-07-15 06:14:49.730 ,4,0,,0,25.,4.8,0.,4.8,,0,0.,4.8,13.,4.8
1979-07-15 06:14:54.530 ,4,0,,0,24.,4.8,1.,4.8,,0,0.,4.8,16.,4.8
1979-07-15 06:14:59.340 ,4,0,,0,18.,4.8,0.,4.8,,0,0.,4.8,14.,4.8
1979-07-15 06:15:04.140 ,4,0,,0,0.,4.8,0.,4.8,,0,0.,4.8,10.,4.8
1979-07-15 06:15:08.930 ,4,0,,0,0.,4.8,0.,4.8,,0,0.,4.8,13.,4.8
1979-07-15 06:15:13.730 ,5,0,,0,0.,4.8,0.,4.8,,0,0.,4.8,22.,4.8
1979-07-15 06:15:18.530 ,5,0,,0,0.,4.8,0.,4.8,,0,0.,4.8,36.,4.8
1979-07-15 06:15:23.330 ,5,0,,0,18.,4.8,0.,4.8,,0,0.,4.8,74.,4.8
1979-07-15 06:15:28.140 ,5,0,,0,102.,4.8,7.,4.8,,0,0.,4.8,82.,4.8
1979-07-15 06:15:32.930 ,5,0,,0,96.,4.8,4.,4.8,,0,0.,4.8,68.,4.8
1979-07-15 06:15:37.730 ,5,0,,0,110.,4.8,9.,4.8,,0,0.,4.8,64.,4.8
1979-07-15 06:15:42.530 ,5,0,,0,64.,4.8,5.,4.8,,0,0.,4.8,74.,4.8
1979-07-15 06:15:47.340 ,5,0,,0,61.,4.8,2.,4.8,,0,0.,4.8,62.,4.8
1979-07-15 06:15:52.140 ,5,0,,0,0.,4.8,0.,4.8,,0,0.,4.8,68.,4.8
1979-07-15 06:15:56.930 ,5,0,,0,0.,4.8,0.,4.8,,0,0.,4.8,64.,4.8
1979-07-15 06:16:01.730 ,6,0,,0,0.,4.8,0.,4.8,,0,0.,4.8,46.,4.8
1979-07-15 06:16:06.530 ,6,0,,0,0.,4.8,0.,4.8,,0,0.,4.8,47.,4.8
1979-07-15 06:16:11.340 ,6,0,,0,8.,4.8,0.,4.8,,0,0.,4.8,32.,4.8
1979-07-15 06:16:16.140 ,6,0,,0,38.,4.8,5.,4.8,,0,0.,4.8,31.,4.8
1979-07-15 06:16:20.930 ,6,0,,0,27.,4.8,3.,4.8,,0,0.,4.8,30.,4.8
1979-07-15 06:16:25.730 ,6,0,,0,48.,4.8,3.,4.8,,0,0.,4.8,42.,4.8
1979-07-15 06:16:30.530 ,6,0,,0,43.,4.8,4.,4.8,,0,0.,4.8,35.,4.8
1979-07-15 06:16:35.330 ,6,0,,0,31.,4.8,0.,4.8,,0,0.,4.8,29.,4.8
1979-07-15 06:16:40.140 ,6,0,,0,1.,4.8,0.,4.8,,0,0.,4.8,44.,4.8
1979-07-15 06:16:44.930 ,6,0,,0,0.,4.8,0.,4.8,,0,0.,4.8,25.,4.8
1979-07-15 06:16:49.730 ,7,0,,0,0.,4.8,0.,4.8,,0,0.,4.8,32.,4.8
1979-07-15 06:16:54.530 ,7,0,,0,0.,4.8,0.,4.8,,0,0.,4.8,30.,4.8
1979-07-15 06:16:59.340 ,7,0,,0,2.,4.8,0.,4.8,,0,0.,4.8,0.,4.8
1979-07-15 06:17:04.140 ,7,0,,0,12.,4.8,0.,4.8,,0,0.,4.8,0.,4.8
1979-07-15 06:17:08.940 ,7,0,,0,8.,4.8,0.,4.8,,0,0.,4.8,0.,4.8
1979-07-15 06:17:13.730 ,7,0,,0,16.,4.8,0.,4.8,,0,0.,4.8,0.,4.8
1979-07-15 06:17:18.540 ,7,0,,0,5.,4.8,0.,4.8,,0,0.,4.8,0.,4.8
1979-07-15 06:17:23.330 ,7,0,,0,5.,4.8,0.,4.8,,0,0.,4.8,0.,4.8
1979-07-15 06:17:28.140 ,7,0,,0,0.,4.8,0.,4.8,,0,0.,4.8,0.,4.8
1979-07-15 06:17:32.930 ,7,0,,0,0.,4.8,0.,4.8,,0,0.,4.8,0.,4.8
1979-07-15 06:17:37.730 ,7,0,,0,0.,4.8,0.,4.8,,0,0.,4.8,0.,4.8
1979-07-15 06:17:42.540 ,7,0,,0,0.,4.8,0.,4.8,,0,0.,4.8,0.,4.8
1979-07-15 06:17:47.330 ,7,0,,0,2.,4.8,0.,4.8,,0,0.,4.8,0.,4.8
1979-07-15 06:17:52.140 ,7,0,,0,5.,4.8,0.,4.8,,0,0.,4.8,0.,4.8
1979-07-15 06:17:56.930 ,7,0,,0,10.,4.8,0.,4.8,,0,0.,4.8,0.,4.8
1979-07-15 06:18:01.730 ,7,0,,0,13.,4.8,0.,4.8,,0,0.,4.8,0.,4.8
1979-07-15 06:18:06.540 ,7,0,,0,10.,4.8,0.,4.8,,0,0.,4.8,0.,4.8
1979-07-15 06:18:11.330 ,7,0,,0,4.,4.8,0.,4.8,,0,0.,4.8,0.,4.8
1979-07-15 06:18:16.140 ,7,0,,0,0.,4.8,0.,4.8,,0,0.,4.8,0.,4.8
1979-07-15 06:18:20.940 ,7,0,,0,0.,4.8,0.,4.8,,0,0.,4.8,0.,4.8
1979-07-15 06:18:25.730 ,6,0,,0,0.,4.8,0.,4.8,,0,0.,4.8,0.,4.8
1979-07-15 06:18:30.540 ,6,0,,0,0.,4.8,0.,4.8,,0,0.,4.8,10.,4.8
1979-07-15 06:18:35.330 ,6,0,,0,8.,4.8,1.,4.8,,0,0.,4.8,53.,4.8
1979-07-15 06:18:40.140 ,6,0,,0,76.,4.8,8.,4.8,,0,0.,4.8,33.,4.8
1979-07-15 06:18:44.930 ,6,0,,0,74.,4.8,2.,4.8,,0,0.,4.8,38.,4.8
1979-07-15 06:18:49.730 ,6,0,,0,68.,4.8,7.,4.8,,0,0.,4.8,36.,4.8
1979-07-15 06:18:54.540 ,6,0,,0,64.,4.8,9.,4.8,,0,0.,4.8,40.,4.8
1979-07-15 06:18:59.330 ,6,0,,0,68.,4.8,4.,4.8,,0,0.,4.8,52.,4.8
1979-07-15 06:19:04.140 ,6,0,,0,0.,4.8,0.,4.8,,0,0.,4.8,56.,4.8
1979-07-15 06:19:08.940 ,6,0,,0,0.,4.8,0.,4.8,,0,0.,4.8,41.,4.8
1979-07-15 06:19:13.730 ,5,0,,0,0.,4.8,0.,4.8,,0,0.,4.8,43.,4.8
1979-07-15 06:19:18.540 ,5,0,,0,0.,4.8,0.,4.8,,0,0.,4.8,54.,4.8
1979-07-15 06:19:23.330 ,5,0,,0,13.,4.8,1.,4.8,,0,0.,4.8,63.,4.8
1979-07-15 06:19:28.140 ,5,0,,0,80.,4.8,4.,4.8,,0,0.,4.8,80.,4.8
1979-07-15 06:19:32.930 ,5,0,,0,102.,4.8,4.,4.8,,0,0.,4.8,61.,4.8
1979-07-15 06:19:37.730 ,5,0,,0,88.,4.8,2.,4.8,,0,0.,4.8,70.,4.8
1979-07-15 06:19:42.540 ,5,0,,0,74.,4.8,10.,4.8,,0,0.,4.8,74.,4.8
1979-07-15 06:19:47.330 ,5,0,,0,56.,4.8,1.,4.8,,0,0.,4.8,64.,4.8
1979-07-15 06:19:52.140 ,5,0,,0,0.,4.8,0.,4.8,,0,0.,4.8,82.,4.8
1979-07-15 06:19:56.930 ,5,0,,0,0.,4.8,0.,4.8,,0,0.,4.8,66.,4.8
1979-07-15 06:20:01.730 ,4,0,,0,0.,4.8,0.,4.8,,0,0.,4.8,63.,4.8
1979-07-15 06:20:06.540 ,4,0,,0,0.,4.8,0.,4.8,,0,0.,4.8,61.,4.8
1979-07-15 06:20:11.330 ,4,0,,0,4.,4.8,0.,4.8,,0,0.,4.8,14.,4.8
1979-07-15 06:20:16.140 ,4,0,,0,16.,4.8,0.,4.8,,0,0.,4.8,9.,4.8
1979-07-15 06:20:20.940 ,4,0,,0,20.,4.8,3.,4.8,,0,0.,4.8,17.,4.8
1979-07-15 06:20:25.730 ,4,0,,0,11.,4.8,0.,4.8,,0,0.,4.8,10.,4.8
1979-07-15 06:20:30.540 ,4,0,,0,31.,4.8,1.,4.8,,0,0.,4.8,13.,4.8
1979-07-15 06:20:35.330 ,4,0,,0,18.,4.8,1.,4.8,,0,0.,4.8,18.,4.8
1979-07-15 06:20:40.140 ,4,0,,0,0.,4.8,0.,4.8,,0,0.,4.8,15.,4.8
1979-07-15 06:20:44.930 ,4,0,,0,0.,4.8,0.,4.8,,0,0.,4.8,5.,4.8
1979-07-15 06:20:49.730 ,3,0,,0,0.,4.8,0.,4.8,,0,0.,4.8,8.,4.8
1979-07-15 06:20:54.540 ,3,0,,0,0.,4.8,0.,4.8,,0,0.,4.8,13.,4.8
1979-07-15 06:20:59.330 ,3,0,,0,2.,4.8,0.,4.8,,0,0.,4.8,7.,4.8
1979-07-15 06:21:04.140 ,3,0,,0,8.,4.8,0.,4.8,,0,0.,4.8,3.,4.8
1979-07-15 06:21:08.930 ,3,0,,0,14.,4.8,0.,4.8,,0,0.,4.8,7.,4.8
1979-07-15 06:21:13.730 ,3,0,,0,10.,4.8,0.,4.8,,0,0.,4.8,5.,4.8
1979-07-15 06:21:18.540 ,3,0,,0,14.,4.8,2.,4.8,,0,0.,4.8,6.,4.8
1979-07-15 06:21:23.330 ,3,0,,0,8.,4.8,1.,4.8,,0,0.,4.8,5.,4.8
1979-07-15 06:21:28.140 ,3,0,,0,0.,4.8,0.,4.8,,0,0.,4.8,7.,4.8
1979-07-15 06:21:32.930 ,3,0,,0,0.,4.8,0.,4.8,,0,0.,4.8,4.,4.8
1979-07-15 06:21:37.730 ,2,0,,0,0.,4.8,0.,4.8,,0,0.,4.8,4.,4.8
1979-07-15 06:21:42.540 ,2,0,,0,0.,4.8,0.,4.8,,0,0.,4.8,3.,4.8
1979-07-15 06:21:47.330 ,2,0,,0,0.,4.8,0.,4.8,,0,0.,4.8,1.,4.8
1979-07-15 06:21:52.140 ,2,0,,0,8.,4.8,0.,4.8,,0,0.,4.8,3.,4.8
1979-07-15 06:21:56.930 ,2,0,,0,9.,4.8,0.,4.8,,0,0.,4.8,3.,4.8
1979-07-15 06:22:01.730 ,2,0,,0,3.,4.8,0.,4.8,,0,0.,4.8,1.,4.8
1979-07-15 06:22:06.540 ,2,0,,0,7.,4.8,1.,4.8,,0,0.,4.8,3.,4.8
1979-07-15 06:22:11.330 ,2,0,,0,1.,4.8,0.,4.8,,0,0.,4.8,4.,4.8
1979-07-15 06:22:16.140 ,2,0,,0,0.,4.8,0.,4.8,,0,0.,4.8,3.,4.8
1979-07-15 06:22:20.940 ,2,0,,0,0.,4.8,0.,4.8,,0,0.,4.8,1.,4.8
1979-07-15 06:22:25.730 ,1,0,,0,0.,4.8,0.,4.8,,0,0.,4.8,1.,4.8
1979-07-15 06:22:30.540 ,1,0,,0,0.,4.8,0.,4.8,,0,0.,4.8,3.,4.8
1979-07-15 06:22:35.330 ,1,0,,0,0.,4.8,0.,4.8,,0,0.,4.8,1.,4.8
1979-07-15 06:22:40.140 ,1,0,,0,9.,4.8,0.,4.8,,0,0.,4.8,1.,4.8
1979-07-15 06:22:44.930 ,1,0,,0,3.,4.8,1.,4.8,,0,0.,4.8,2.,4.8
1979-07-15 06:22:49.730 ,1,0,,0,5.,4.8,1.,4.8,,0,0.,4.8,2.,4.8
1979-07-15 06:22:54.540 ,1,0,,0,4.,4.8,0.,4.8,,0,0.,4.8,3.,4.8
1979-07-15 06:22:59.330 ,1,0,,0,1.,4.8,0.,4.8,,0,0.,4.8,4.,4.8
1979-07-15 06:23:04.140 ,1,0,,0,0.,4.8,0.,4.8,,0,0.,4.8,1.,4.8
1979-07-15 06:23:08.930 ,1,0,,0,0.,4.8,0.,4.8,,0,0.,4.8,2.,4.8
1979-07-15 06:23:13.730 ,0,0,,0,1.,4.8,0.,4.8,,0,0.,4.8,0.,4.8
1979-07-15 06:23:18.540 ,0,0,,0,0.,4.8,0.,4.8,,0,0.,4.8,2.,4.8
1979-07-15 06:23:23.330 ,0,0,,0,0.,4.8,0.,4.8,,0,0.,4.8,2.,4.8
1979-07-15 06:23:28.140 ,0,0,,0,6.,4.8,2.,4.8,,0,0.,4.8,1.,4.8
1979-07-15 06:23:32.940 ,0,0,,0,3.,4.8,1.,4.8,,0,0.,4.8,2.,4.8
1979-07-15 06:23:37.730 ,0,0,,0,2.,4.8,0.,4.8,,0,0.,4.8,2.,4.8
1979-07-15 06:23:42.540 ,0,0,,0,0.,4.8,0.,4.8,,0,0.,4.8,1.,4.8
1979-07-15 06:23:47.330 ,0,0,,0,4.,4.8,0.,4.8,,0,0.,4.8,1.,4.8
1979-07-15 06:23:52.140 ,0,0,,0,0.,4.8,0.,4.8,,0,0.,4.8,1.,4.8
1979-07-15 06:23:56.940 ,0,0,,0,0.,4.8,0.,4.8,,0,0.,4.8,3.,4.8
1979-07-15 06:24:01.730 ,0,0,,0,0.,4.8,0.,4.8,,0,0.,4.8,2.,4.8
1979-07-15 06:24:06.540 ,0,0,,0,0.,4.8,0.,4.8,,0,0.,4.8,1.,4.8
1979-07-15 06:24:11.330 ,0,0,,0,1.,4.8,0.,4.8,,0,0.,4.8,4.,4.8
1979-07-15 06:24:16.140 ,0,0,,0,6.,4.8,0.,4.8,,0,0.,4.8,1.,4.8
1979-07-15 06:24:20.940 ,0,0,,0,4.,4.8,0.,4.8,,0,0.,4.8,3.,4.8
1979-07-15 06:24:25.730 ,0,0,,0,6.,4.8,1.,4.8,,0,0.,4.8,1.,4.8
1979-07-15 06:24:30.540 ,0,0,,0,4.,4.8,0.,4.8,,0,0.,4.8,7.,4.8
1979-07-15 06:24:35.330 ,0,0,,0,4.,4.8,0.,4.8,,0,0.,4.8,0.,4.8
1979-07-15 06:24:40.140 ,0,0,,0,0.,4.8,0.,4.8,,0,0.,4.8,1.,4.8
1979-07-15 06:24:44.940 ,0,0,,0,0.,4.8,0.,4.8,,0,0.,4.8,1.,4.8
1979-07-15 06:24:49.730 ,1,0,,0,0.,4.8,0.,4.8,,0,0.,4.8,3.,4.8
1979-07-15 06:24:54.540 ,1,0,,0,0.,4.8,0.,4.8,,0,0.,4.8,3.,4.8
1979-07-15 06:24:59.330 ,1,0,,0,4.,4.8,0.,4.8,,0,0.,4.8,4.,4.8
1979-07-15 06:25:04.140 ,1,0,,0,5.,4.8,0.,4.8,,0,0.,4.8,4.,4.8
1979-07-15 06:25:08.940 ,1,0,,0,3.,4.8,0.,4.8,,0,0.,4.8,3.,4.8
1979-07-15 06:25:13.730 ,1,0,,0,8.,4.8,0.,4.8,,0,0.,4.8,3.,4.8
1979-07-15 06:25:18.540 ,1,0,,0,4.,4.8,2.,4.8,,0,0.,4.8,4.,4.8
1979-07-15 06:25:23.330 ,1,0,,0,6.,4.8,0.,4.8,,0,0.,4.8,2.,4.8
1979-07-15 06:25:28.140 ,1,0,,0,0.,4.8,0.,4.8,,0,0.,4.8,0.,4.8
1979-07-15 06:25:32.940 ,1,0,,0,0.,4.8,0.,4.8,,0,0.,4.8,2.,4.8
1979-07-15 06:25:37.730 ,2,0,,0,0.,4.8,0.,4.8,,0,0.,4.8,0.,4.8
1979-07-15 06:25:42.540 ,2,0,,0,0.,4.8,0.,4.8,,0,0.,4.8,0.,4.8
1979-07-15 06:25:47.330 ,2,0,,0,1.,4.8,0.,4.8,,0,0.,4.8,3.,4.8
1979-07-15 06:25:52.140 ,2,0,,0,7.,4.8,0.,4.8,,0,0.,4.8,3.,4.8
1979-07-15 06:25:56.940 ,2,0,,0,3.,4.8,0.,4.8,,0,0.,4.8,6.,4.8
1979-07-15 06:26:01.730 ,2,0,,0,7.,4.8,0.,4.8,,0,0.,4.8,4.,4.8
1979-07-15 06:26:06.540 ,2,0,,0,6.,4.8,1.,4.8,,0,0.,4.8,0.,4.8
1979-07-15 06:26:11.330 ,2,0,,0,4.,4.8,0.,4.8,,0,0.,4.8,3.,4.8
1979-07-15 06:26:16.140 ,2,0,,0,0.,4.8,0.,4.8,,0,0.,4.8,5.,4.8
1979-07-15 06:26:20.940 ,2,0,,0,0.,4.8,0.,4.8,,0,0.,4.8,2.,4.8
1979-07-15 06:26:25.730 ,3,0,,0,0.,4.8,0.,4.8,,0,0.,4.8,3.,4.8
1979-07-15 06:26:30.540 ,3,0,,0,0.,4.8,0.,4.8,,0,0.,4.8,0.,4.8
1979-07-15 06:26:35.330 ,3,0,,0,3.,4.8,1.,4.8,,0,0.,4.8,3.,4.8
1979-07-15 06:26:40.140 ,3,0,,0,7.,4.8,0.,4.8,,0,0.,4.8,4.,4.8
1979-07-15 06:26:44.940 ,3,0,,0,8.,4.8,0.,4.8,,0,0.,4.8,6.,4.8
1979-07-15 06:26:49.730 ,3,0,,0,8.,4.8,2.,4.8,,0,0.,4.8,6.,4.8
1979-07-15 06:26:54.540 ,3,0,,0,9.,4.8,0.,4.8,,0,0.,4.8,4.,4.8
1979-07-15 06:26:59.330 ,3,0,,0,6.,4.8,0.,4.8,,0,0.,4.8,4.,4.8
1979-07-15 06:27:04.140 ,3,0,,0,0.,4.8,0.,4.8,,0,0.,4.8,4.,4.8
1979-07-15 06:27:08.940 ,3,0,,0,0.,4.8,0.,4.8,,0,0.,4.8,5.,4.8
1979-07-15 06:27:13.730 ,4,0,,0,1.,4.8,0.,4.8,,0,0.,4.8,4.,4.8
1979-07-15 06:27:18.540 ,4,0,,0,0.,4.8,0.,4.8,,0,0.,4.8,8.,4.8
1979-07-15 06:27:23.330 ,4,0,,0,1.,4.8,0.,4.8,,0,0.,4.8,13.,4.8
1979-07-15 06:27:28.140 ,4,0,,0,18.,4.8,2.,4.8,,0,0.,4.8,12.,4.8
1979-07-15 06:27:32.930 ,4,0,,0,12.,4.8,0.,4.8,,0,0.,4.8,11.,4.8
1979-07-15 06:27:37.730 ,4,0,,0,23.,4.8,0.,4.8,,0,0.,4.8,11.,4.8
1979-07-15 06:27:42.540 ,4,0,,0,31.,4.8,3.,4.8,,0,0.,4.8,11.,4.8
1979-07-15 06:27:47.330 ,4,0,,0,13.,4.8,0.,4.8,,0,0.,4.8,10.,4.8
1979-07-15 06:27:52.140 ,4,0,,0,0.,4.8,0.,4.8,,0,0.,4.8,12.,4.8
1979-07-15 06:27:56.940 ,4,0,,0,0.,4.8,0.,4.8,,0,0.,4.8,14.,4.8
1979-07-15 06:28:01.730 ,5,0,,0,0.,4.8,0.,4.8,,0,0.,4.8,14.,4.8
1979-07-15 06:28:06.540 ,5,0,,0,0.,4.8,0.,4.8,,0,0.,4.8,29.,4.8
1979-07-15 06:28:11.330 ,5,0,,0,18.,4.8,3.,4.8,,0,0.,4.8,72.,4.8
1979-07-15 06:28:16.140 ,5,0,,0,106.,4.8,13.,4.8,,0,0.,4.8,78.,4.8
1979-07-15 06:28:20.940 ,5,0,,0,92.,4.8,13.,4.8,,0,0.,4.8,64.,4.8
1979-07-15 06:28:25.730 ,5,0,,0,106.,4.8,7.,4.8,,0,0.,4.8,53.,4.8
1979-07-15 06:28:30.540 ,5,0,,0,88.,4.8,7.,4.8,,0,0.,4.8,74.,4.8
1979-07-15 06:28:35.330 ,5,0,,0,82.,4.8,8.,4.8,,0,0.,4.8,66.,4.8
1979-07-15 06:28:40.140 ,5,0,,0,0.,4.8,0.,4.8,,0,0.,4.8,78.,4.8
1979-07-15 06:28:44.940 ,5,0,,0,0.,4.8,0.,4.8,,0,0.,4.8,63.,4.8
1979-07-15 06:28:49.730 ,6,0,,0,0.,4.8,0.,4.8,,0,0.,4.8,55.,4.8
1979-07-15 06:28:54.540 ,6,0,,0,0.,4.8,0.,4.8,,0,0.,4.8,66.,4.8
1979-07-15 06:28:59.330 ,6,0,,0,10.,4.8,3.,4.8,,0,0.,4.8,33.,4.8
1979-07-15 06:29:04.140 ,6,0,,0,44.,4.8,0.,4.8,,0,0.,4.8,36.,4.8
1979-07-15 06:29:08.940 ,6,0,,0,43.,4.8,5.,4.8,,0,0.,4.8,21.,4.8
1979-07-15 06:29:13.730 ,6,0,,0,63.,4.8,5.,4.8,,0,0.,4.8,45.,4.8
1979-07-15 06:29:18.540 ,6,0,,0,53.,4.8,6.,4.8,,0,0.,4.8,45.,4.8
1979-07-15 06:29:23.330 ,6,0,,0,39.,4.8,7.,4.8,,0,0.,4.8,45.,4.8
1979-07-15 06:29:28.140 ,6,0,,0,0.,4.8,0.,4.8,,0,0.,4.8,35.,4.8
1979-07-15 06:29:32.930 ,6,0,,0,0.,4.8,0.,4.8,,0,0.,4.8,44.,4.8
1979-07-15 06:29:37.730 ,7,0,,0,0.,4.8,0.,4.8,,0,0.,4.8,31.,4.8
1979-07-15 06:29:42.540 ,7,0,,0,0.,4.8,0.,4.8,,0,0.,4.8,28.,4.8
1979-07-15 06:29:47.330 ,7,0,,0,1.,4.8,0.,4.8,,0,0.,4.8,0.,4.8
1979-07-15 06:29:52.140 ,7,0,,0,5.,4.8,0.,4.8,,0,0.,4.8,0.,4.8